ZHUHAI-1 OVS-02 (43440 NORAD) Tracking and Keplerian Element Data

This shows tracking and keplerian element data for the satellite.

Feedback or suggestion? Click here.




ElementValue
Catalog43440
NameZHUHAI-1 OVS-02
Epoch Orbit42547
Epoch Day354.28584772
Epoch Year2025
RAAN17.2775
Inclination97.0544
Eccentricity0.0004462
Argument of Perigee148.0712
Mean Anonmoly212.0797
Mean Motion15.22424711
Decay Rate5.151E-05
L11 43440U 18040B 25354.28584772 .00005151 00000+0 22552-3 0 9990
L22 43440 97.0544 17.2775 0004462 148.0712 212.0797 15.22424711425473



Live tracking and technical data element details for ZHUHAI-1 OVS-02 (NORAD 43440). ZHUHAI-1 OVS-02 can be tracked NOW for your location showing map with azimuth and elevation plus other details from your city location.







IsCatalogInMostPopularTable: catalog: 43440, numindb: 412
Update: records affected: 1



GetName: 43440 ZHUHAI-1 OVS-02

Hit Count: updated at: Fri, 16 Jan 2026 03:36:40 GMT